Weather History for Cairns, QU

Change the Weather History Date:

Sunday, July 13, 2014

  Actual Average Record
Temperature  
Mean Temperature 67 °F -  
Max Temperature 78 °F 79 °F 84 °F (2008)
Min Temperature 56 °F 63 °F 53 °F (2000)
Cooling Degree Days 2    
Growing Degree Days 17 (Base 50)    
Moisture  
Dew Point 56 °F    
Average Humidity 66    
Maximum Humidity 88    
Minimum Humidity 38    
Precipitation  
Precipitation 0.00 in 0.03 in - ()
Sea Level Pressure  
Sea Level Pressure 30.03 in    
Wind  
Wind Speed 13 mph ()    
Max Wind Speed 21 mph    
Max Gust Speed 29 mph    
Visibility 7.3 miles    
Events Rain    
Averages and records for this station are not official NWS values.
T = Trace of Precipitation, MM = Missing Value Source: Averaged Metar Reports

Daily Weather History Graph

Daily Weather History Graph

Search for Another Location

Airport:

Trip Planner

Search our weather history database for the weather conditions in past years. The results will help you decide how hot, cold, wet, or windy it might be!

Date:

Astronomy

Jul. 13, 2014 Rise Set
Actual Time 6:46 AM AEST 5:58 PM AEST
Civil Twilight 6:23 AM AEST 6:21 PM AEST
Nautical Twilight 5:56 AM AEST 6:48 PM AEST
Astronomical Twilight 5:30 AM AEST 7:15 PM AEST
Moon 6:54 PM AEST (7/13) 7:02 AM AEST (7/13)
Length of Visible Light 11h 58m
Length of Day
11h 11m
Waxing Gibbous, 99% of the Moon is Illuminated
Jul 13
Waxing Gibbous
Jul 19
Last Quarter
Jul 27
New
Aug 4
First Quarter
Aug 11
Full

Hourly Weather History & Observations

Time (AEST) Temp. Dew Point Humidity Pressure Visibility Wind Dir Wind Speed Gust Speed Precip Events Conditions
12:00 AM 60 °F 55 °F 78% 30.10 in - SE 11.5 mph - -  
12:00 AM 60.8 °F 55.4 °F 82% 30.09 in 6.2 mi SE 11.5 mph - N/A   Partly Cloudy
12:30 AM 59.0 °F 55.4 °F 88% 30.06 in 6.2 mi SSE 11.5 mph - N/A   Partly Cloudy
1:00 AM 59 °F 54 °F 80% 30.09 in - SE 11.5 mph - -  
1:00 AM 59.0 °F 55.4 °F 88% 30.06 in 6.2 mi SE 11.5 mph - N/A   Partly Cloudy
1:30 AM 59.0 °F 55.4 °F 88% 30.06 in 6.2 mi SE 11.5 mph - N/A   Partly Cloudy
2:00 AM 59.0 °F 53.6 °F 82% 30.06 in 6.2 mi SE 12.7 mph - N/A   Partly Cloudy
2:30 AM 59.0 °F 53.6 °F 82% 30.04 in 6.2 mi SSE 12.7 mph - N/A   Partly Cloudy
3:00 AM 57 °F 54 °F 86% 30.05 in - SE 12.7 mph - -  
3:00 AM 57.2 °F 53.6 °F 88% 30.04 in 6.2 mi SE 12.7 mph - N/A   Partly Cloudy
3:30 AM 57.2 °F 53.6 °F 88% 30.04 in 6.2 mi SE 11.5 mph - N/A   Partly Cloudy
4:00 AM 58 °F 53 °F 77% 30.04 in - SE 10.4 mph - -  
4:00 AM 57.2 °F 53.6 °F 88% 30.04 in - SE 10.4 mph - N/A   Clear
4:30 AM 57.2 °F 53.6 °F 88% 30.01 in - SSE 8.1 mph - N/A   Clear
5:00 AM 57.2 °F 51.8 °F 82% 30.01 in - SE 15.0 mph - N/A   Clear
5:30 AM 59.0 °F 51.8 °F 77% 30.01 in - SE 16.1 mph - N/A   Unknown
6:00 AM 59 °F 51 °F 66% 30.03 in 19 mi SE 15.0 mph - -   Partly Cloudy
6:00 AM 59.0 °F 50.0 °F 72% 30.01 in - SE 15.0 mph - N/A   Clear
6:30 AM 59.0 °F 50.0 °F 72% 30.04 in 6.2 mi SE 12.7 mph - N/A   Partly Cloudy
7:00 AM 58 °F 51 °F 71% 30.06 in - SE 12.7 mph - -  
7:00 AM 59.0 °F 51.8 °F 77% 30.04 in 6.2 mi SE 12.7 mph - N/A   Partly Cloudy
7:30 AM 60.8 °F 51.8 °F 72% 30.06 in 6.2 mi ESE 15.0 mph - N/A   Partly Cloudy
8:00 AM 66.2 °F 50.0 °F 56% 30.04 in 6.2 mi SE 11.5 mph - N/A   Partly Cloudy
8:30 AM 68.0 °F 50.0 °F 52% 30.06 in 6.2 mi South 12.7 mph - N/A   Partly Cloudy
9:00 AM 69 °F 52 °F 44% 30.07 in 19 mi South 12.7 mph - -   Partly Cloudy
9:00 AM 69.8 °F 51.8 °F 53% 30.06 in 6.2 mi South 12.7 mph - N/A   Partly Cloudy
9:30 AM 69.8 °F 53.6 °F 56% 30.06 in 6.2 mi South 13.8 mph - N/A   Partly Cloudy
10:00 AM 71 °F 54 °F 44% 30.06 in - South 13.8 mph - -  
10:00 AM 71.6 °F 53.6 °F 53% 30.04 in 6.2 mi South 13.8 mph - N/A   Partly Cloudy
10:30 AM 73.4 °F 55.4 °F 53% 30.04 in 6.2 mi South 15.0 mph - N/A   Partly Cloudy
11:00 AM 75.2 °F 57.2 °F 53% 30.04 in 6.2 mi South 15.0 mph - N/A   Partly Cloudy
11:30 AM 77.0 °F 57.2 °F 50% 30.04 in 6.2 mi SSE 15.0 mph - N/A   Partly Cloudy
12:00 PM 77 °F 58 °F 41% 30.02 in 19 mi SE 18.4 mph - -   Partly Cloudy
12:00 PM 77.0 °F 57.2 °F 50% 30.01 in 6.2 mi SE 18.4 mph - N/A   Partly Cloudy
12:30 PM 77.0 °F 57.2 °F 50% 30.01 in 6.2 mi SSE 13.8 mph - N/A   Scattered Clouds
1:00 PM 78 °F 57 °F 38% 30.01 in - SE 20.7 mph - -  
1:00 PM 78.8 °F 57.2 °F 47% 30.01 in 6.2 mi SE 20.7 mph - N/A   Partly Cloudy
1:30 PM 78.8 °F 57.2 °F 47% 30.01 in 6.2 mi SE 20.7 mph - N/A   Partly Cloudy
1:51 PM 77.0 °F 59.0 °F 54% 29.98 in 6.2 mi SE 17.3 mph 28.8 mph N/A   Partly Cloudy
2:00 PM 77.0 °F 59.0 °F 54% 29.98 in 6.2 mi SSE 16.1 mph - N/A   Partly Cloudy
2:30 PM 75.2 °F 59.0 °F 57% 29.98 in 6.2 mi SE 20.7 mph - N/A   Scattered Clouds
3:00 PM 75 °F 58 °F 46% 29.98 in 19 mi SE 18.4 mph - -   Partly Cloudy
3:00 PM 75.2 °F 59.0 °F 57% 29.98 in 6.2 mi SE 18.4 mph - N/A   Scattered Clouds
3:30 PM 77.0 °F 59.0 °F 54% 29.98 in 6.2 mi SE 16.1 mph - N/A   Scattered Clouds
4:00 PM 75 °F 59 °F 47% 29.99 in - SSE 15.0 mph - -  
4:00 PM 75.2 °F 59.0 °F 57% 29.98 in 6.2 mi SSE 15.0 mph - N/A   Scattered Clouds
4:30 PM 73.4 °F 57.2 °F 57% 29.98 in 6.2 mi SSE 19.6 mph - N/A   Scattered Clouds
5:00 PM 73.4 °F 59.0 °F 61% 29.98 in 6.2 mi SE 16.1 mph - N/A   Partly Cloudy
5:30 PM 71.6 °F 59.0 °F 64% 30.01 in 6.2 mi SE 16.1 mph - N/A   Partly Cloudy
6:00 PM 71 °F 60 °F 59% 30.02 in - SSE 13.8 mph - -  
6:00 PM 71.6 °F 59.0 °F 64% 30.01 in 6.2 mi SSE 13.8 mph - N/A   Scattered Clouds
6:30 PM 69.8 °F 59.0 °F 68% 30.01 in 6.2 mi South 15.0 mph - N/A   Mostly Cloudy
7:00 PM 70 °F 59 °F 61% 30.04 in - SSE 15.0 mph - -  
7:00 PM 69.8 °F 59.0 °F 68% 30.04 in 6.2 mi SSE 15.0 mph - N/A   Mostly Cloudy
7:30 PM 69.8 °F 60.8 °F 73% 30.04 in 6.2 mi SSE 17.3 mph - N/A   Mostly Cloudy
8:00 PM 69.8 °F 60.8 °F 73% 30.06 in 6.2 mi SSE 15.0 mph - N/A   Mostly Cloudy
8:30 PM 69.8 °F 60.8 °F 73% 30.06 in 6.2 mi SSE 10.4 mph - N/A   Mostly Cloudy
9:00 PM 69 °F 62 °F 72% 30.09 in - SSE 13.8 mph - -   Overcast
9:00 PM 68.0 °F 62.6 °F 83% 30.06 in 6.2 mi SSE 13.8 mph - N/A Rain Light Rain Showers
9:30 PM 69.8 °F 60.8 °F 73% 30.06 in 6.2 mi SSE 12.7 mph - N/A   Mostly Cloudy
10:00 PM 69 °F 61 °F 68% 30.09 in - SSE 12.7 mph - -  
10:00 PM 68.0 °F 60.8 °F 78% 30.06 in 6.2 mi SSE 12.7 mph - N/A   Mostly Cloudy
10:30 PM 69.8 °F 60.8 °F 73% 30.06 in 6.2 mi SSE 15.0 mph - N/A   Mostly Cloudy
11:00 PM 69.8 °F 60.8 °F 73% 30.06 in 6.2 mi SSE 13.8 mph - N/A   Mostly Cloudy
11:30 PM 68.0 °F 60.8 °F 78% 30.06 in 6.2 mi South 13.8 mph - N/A   Mostly Cloudy